629  
NZUS93 KARX 241810  
HRRWXR  
 
CURRENT HOURLY OBSERVATIONS ACROSS  
MUCH OF THE UPPER MISSISSIPPI VALLEY  
NATIONAL WEATHER SERVICE LA CROSSE WI  
100 PM CDT SUN JUN 24 2018  
 
   
..SOUTHEAST MINNESOTA
 
 
 
CITY SKY/WX TMP DP RH WIND PRES REMARKS  
ROCHESTER FAIR 78 62 57 SE9 29.98R  
ROCHESTER/MAYO FAIR 78 57 47 SE7 29.98S  
WINONA PTSUNNY 81 61 50 E5 29.96S  
AUSTIN FAIR 79 61 53 SE8 29.96S  
ALBERT LEA FAIR 79 61 53 S10 29.95S  
DODGE CENTER FAIR 77 59 53 E8 29.98S  
PRESTON FAIR 78 59 52 SE7 29.99S  
OWATONNA FAIR 75 64 69 E3 29.97R  
FARIBAULT LGT RAIN 77 63 61 SE5 29.97S  

 
   
..ELSEWHERE IN MINNESOTA
 
 
 
CITY SKY/WX TMP DP RH WIND PRES REMARKS  
MINNEAPOLIS CLOUDY 78 66 66 E7 29.96S  
INTNL FALLS CLOUDY 62 55 77 E14 30.11R  
DULUTH FAIR 55 43 63 E22G35 30.11R  
RED WING PTSUNNY 82 61 47 SE8 29.95S  
REDWOOD FALLS CLOUDY 73 66 78 E12 29.90R  
MANKATO LGT RAIN 70 64 83 E12 29.93F  
WORTHINGTON CLOUDY 77 68 73 E12 29.89F  
FAIRMONT CLOUDY 79 67 66 S12 29.92S  

 
   
..SOUTHWEST WISCONSIN
 
 
 
CITY SKY/WX TMP DP RH WIND PRES REMARKS  
LA CROSSE FAIR 85 61 44 SW6 29.96R  
PRAIRIE DU CHI FAIR 80 62 54 SW5 29.97S  
BOSCOBEL PTSUNNY 82 64 54 VRB3 29.97S  
LONE ROCK FAIR 82 61 48 CALM 29.98R  
PLATTEVILLE FAIR 80 64 57 N3 30.00S  
FORT MC COY FAIR 82 57 42 S5 29.98R  
CAMP DOUGLAS MOSUNNY 82 59 44 E5 29.97R  
MAUSTON-NEW LI FAIR 82 60 46 S3 29.97S  
VIROQUA MOCLDY 79 63 58 S5 30.00S  
WIS DELLS FAIR 82 56 40 CALM 29.99R  

 
   
..ELSEWHERE IN WISCONSIN
 
 
 
CITY SKY/WX TMP DP RH WIND PRES REMARKS  
MILWAUKEE FAIR 71 61 70 NE12 30.00R  
MADISON PTSUNNY 80 65 59 N3 29.98R  
GREEN BAY FAIR 77 65 66 NE7G18 29.99R  
EAU CLAIRE FAIR 82 60 47 NE7 29.97R  
BLACK RVR FLS FAIR 84 55 36 CALM 29.97R  
MEDFORD FAIR 75 62 64 S6 30.01R  
WAUSAU PTSUNNY 77 59 53 VRB7 29.99R  
WIS RAPIDS FAIR 82 59 45 VRB5 29.99R  
MARSHFIELD FAIR 81 63 54 VRB3 29.99R  
RICE LAKE FAIR 79 56 44 NE5 30.01R  

 
   
..NORTHEAST IOWA
 
 
 
CITY SKY/WX TMP DP RH WIND PRES REMARKS  
WATERLOO FAIR 79 63 57 SE7 29.95S  
DUBUQUE FAIR 81 59 47 SE5 29.99S  
DECORAH FAIR 79 59 50 S7 29.98R  
MASON CITY CLOUDY 79 68 69 SE14 29.95F  
CHARLES CITY FAIR 81 63 54 SE13 29.96F  
OELWEIN FAIR 79 63 57 S9 29.98S  

 
   
..ELSEWHERE IN IOWA
 
 
 
CITY SKY/WX TMP DP RH WIND PRES REMARKS  
DES MOINES PTSUNNY 83 71 67 E10 29.90F  
IOWA CITY FAIR 80 66 62 SE9 29.98R  
FORT DODGE SUNNY 79 68 69 SE17G23 29.91S  
MARSHALLTOWN LGT RAIN 73 69 87 SE8 29.96S  
CEDAR RAPIDS FAIR 79 65 62 E10 29.97R  

 
   
..NORTHERN ILLINOIS
 
 
 
CITY SKY/WX TMP DP RH WIND PRES REMARKS  
CHICAGO-OHARE FAIR 79 63 57 NE8 29.97R  
CHICAGO-MIDWAY PTSUNNY 79 64 60 NE8 29.97R  
MOLINE PTSUNNY 82 64 54 MISG 29.97R  
ROCKFORD PTSUNNY 81 60 48 N5 29.99R  
PEORIA PTSUNNY 80 67 64 SW8 29.98S  

 
 
NOTE: "FAIR" INDICATES FEW OR NO CLOUDS BELOW 12,000 FEET WITH NO  
SIGNIFICANT WEATHER AND/OR OBSTRUCTIONS TO VISIBILITY. WIND  
SPEEDS ARE IN MILES-PER-HOUR.  
 
 
CLICK HERE TO GO TO PREVIOUS BULLETINS.

The Nexlab WI Page
The Nexlab IA Page
The Nexlab MN Page Main Text Page